Stations météo

réclame
Mon MeteoGroup
Lecce, Italie (16332): Température de l'air & dewpoint: 14.10.2018 19:00:00 - 20.10.2018 19:00:00 (CEST)Lecce, Italie (16332): Vitesse du vent: 14.10.2018 19:00:00 - 20.10.2018 19:00:00 (CEST)Lecce, Italie (16332): Direction du vent: 14.10.2018 19:00:00 - 20.10.2018 19:00:00 (CEST)Lecce, Italie (16332): reduced air pressure: 14.10.2018 19:00:00 - 20.10.2018 19:00:00 (CEST)Lecce, Italie (16332): visibility: 14.10.2018 19:00:00 - 20.10.2018 19:00:00 (CEST)
Date & Time tt [°C] td [°C] ff [km/h] ff [knt] dd ppp [hPa] vv [km]
20.10.2018 19:00:00 - - - - - - -
20.10.2018 18:00:00 19,0 17,0 22 12 NNW - 8
20.10.2018 17:00:00 21,2 16,4 18 10 NNW 1018,3 8
20.10.2018 16:00:00 22,0 17,0 22 12 NNW - 8
20.10.2018 15:00:00 22,0 17,0 26 14 NNW - 8
20.10.2018 14:00:00 21,8 17,4 24 13 NNW 1018,4 8
20.10.2018 13:00:00 22,0 17,0 26 14 NNW - 7
20.10.2018 12:00:00 22,0 17,0 24 13 N - 7
20.10.2018 11:00:00 20,8 17,2 22 12 NNW 1018,8 7
20.10.2018 10:00:00 19,0 17,0 16 9 NNW - 6
20.10.2018 09:00:00 17,0 17,0 8 4 NNW - 3,2
20.10.2018 08:00:00 14,2 13,6 4 2 W 1018,6 0,4
20.10.2018 07:00:00 14,0 13,0 4 2 WNW - 0,1
20.10.2018 06:00:00 15,0 14,0 4 2 NNW - 2,0
20.10.2018 05:00:00 16,4 15,6 4 2 NNW 1017,7 3,0
20.10.2018 04:00:00 17,0 16,0 13 7 NNW - 3,0
20.10.2018 03:00:00 17,0 16,0 11 6 NNW - 3,0
20.10.2018 02:00:00 16,2 15,6 9 5 NNW 1017,9 3,0
20.10.2018 01:00:00 16,0 15,0 5 3 NNW - 2,5
20.10.2018 00:00:00 15,0 15,0 8 4 NW - 5
19.10.2018 23:00:00 16,8 16,3 5 3 N 1017,2 7
19.10.2018 22:00:00 17,0 16,0 8 4 NNW - 10
19.10.2018 21:00:00 18,0 17,0 9 5 NNW - 10
19.10.2018 20:00:00 17,6 17,0 9 5 N 1016,3 10
19.10.2018 19:00:00 19,0 18,0 9 5 NNW - 10
19.10.2018 18:00:00 21,0 17,0 9 5 N - 10
19.10.2018 17:00:00 21,4 17,4 15 8 N 1015,7 10
19.10.2018 16:00:00 23,0 17,0 18 10 N - 10
19.10.2018 15:00:00 23,0 17,0 18 10 N - 10
19.10.2018 14:00:00 22,8 16,6 15 8 NNW 1016,0 10
19.10.2018 13:00:00 22,0 17,0 15 8 NNE - 10
19.10.2018 12:00:00 22,0 18,0 15 8 N - 10
19.10.2018 11:00:00 21,2 19,1 15 8 N 1015,9 10
19.10.2018 10:00:00 20,0 19,0 13 7 NNE - 8
19.10.2018 09:00:00 18,0 17,0 9 5 N - 3,7
19.10.2018 08:00:00 15,0 14,0 4 2 N 1015,2 0,1
19.10.2018 07:00:00 14,0 13,0 5 3 - - 0,1
19.10.2018 06:00:00 14,0 13,0 4 2 - - 0,1
19.10.2018 05:00:00 15,4 14,3 5 3 - 1015,2 0,1
19.10.2018 04:00:00 15,0 14,0 2 1 - - 0,1
19.10.2018 03:00:00 15,0 14,0 4 2 - - 0,3
19.10.2018 02:00:00 15,0 13,9 4 2 N 1014,8 1,2
19.10.2018 01:00:00 17,0 16,0 4 2 - - 2,0
19.10.2018 00:00:00 18,0 17,0 9 5 NNE - 2,0
18.10.2018 23:00:00 17,4 16,4 4 2 N 1014,8 3,0
18.10.2018 22:00:00 18,0 17,0 5 3 - - 3,0
18.10.2018 21:00:00 18,0 17,0 5 3 - - 6
18.10.2018 20:00:00 18,8 17,5 5 3 WSW 1014,9 10
18.10.2018 19:00:00 19,0 18,0 8 4 N - 10
18.10.2018 18:00:00 21,0 19,0 9 5 NNE - 10
18.10.2018 17:00:00 22,0 18,4 13 7 NNE 1013,6 10
18.10.2018 16:00:00 24,0 18,0 11 6 SW - 10
18.10.2018 15:00:00 24,0 18,0 15 8 SW - 10
18.10.2018 14:00:00 26,0 14,2 5 3 SE 1014,0 10
18.10.2018 13:00:00 25,0 16,0 4 2 NE - 10
18.10.2018 12:00:00 24,0 17,0 4 2 ENE - 10
18.10.2018 11:00:00 22,2 19,6 5 3 NE 1015,3 5
18.10.2018 10:00:00 19,0 18,0 2 1 - - 3,5
18.10.2018 09:00:00 15,0 14,0 2 1 - - 1,8
18.10.2018 08:00:00 13,8 13,0 2 1 N 1015,6 0,2
18.10.2018 07:00:00 14,0 13,0 0 0 N - 0,1
18.10.2018 06:00:00 14,0 13,0 0 0 N - 0,1
18.10.2018 05:00:00 13,2 12,4 4 2 N 1015,8 0,1
18.10.2018 04:00:00 13,0 12,0 2 1 - - 0,2
18.10.2018 03:00:00 13,0 12,0 4 2 - - 3,0
18.10.2018 02:00:00 14,2 13,4 4 2 N 1016,9 7
18.10.2018 01:00:00 14,0 14,0 2 1 - - 10
18.10.2018 00:00:00 15,0 14,0 2 1 - - 10
17.10.2018 23:00:00 16,2 15,4 4 2 N 1017,2 10
17.10.2018 22:00:00 17,0 16,0 2 1 - - 10
17.10.2018 21:00:00 18,0 16,0 4 2 - - 10
17.10.2018 20:00:00 18,4 16,7 2 1 N 1016,4 10
17.10.2018 19:00:00 19,0 17,0 5 3 - - 10
17.10.2018 18:00:00 20,0 17,0 11 6 NE - 10
17.10.2018 17:00:00 23,0 17,5 8 4 W 1016,3 10
17.10.2018 16:00:00 23,0 18,0 13 7 SW - 10
17.10.2018 15:00:00 23,0 17,0 13 7 WSW - 10
17.10.2018 14:00:00 25,6 15,3 5 3 N 1016,7 10
17.10.2018 13:00:00 25,0 15,0 8 4 E - 10
17.10.2018 12:00:00 24,0 15,0 5 3 - - 10
17.10.2018 11:00:00 23,6 15,7 9 5 ESE 1018,4 10
17.10.2018 10:00:00 22,0 16,0 9 5 E - 10
17.10.2018 09:00:00 18,0 17,0 0 0 N - 10
17.10.2018 08:00:00 14,8 13,7 4 2 E 1018,3 7
17.10.2018 07:00:00 15,0 14,0 4 2 ENE - 7
17.10.2018 06:00:00 15,0 14,0 8 4 E - 7
17.10.2018 05:00:00 14,6 13,7 4 2 ESE 1018,8 6
17.10.2018 04:00:00 15,0 15,0 4 2 NNE - 10
17.10.2018 03:00:00 16,0 15,0 5 3 ESE - 10
17.10.2018 02:00:00 16,4 15,8 2 1 N 1019,3 10
17.10.2018 01:00:00 17,0 16,0 4 2 SSE - 10
17.10.2018 00:00:00 18,0 17,0 5 3 E - 10
16.10.2018 23:00:00 18,4 17,8 9 5 E 1019,7 10
16.10.2018 22:00:00 18,0 17,0 5 3 E - 10
16.10.2018 21:00:00 18,0 17,0 4 2 ESE - 10
16.10.2018 20:00:00 19,8 18,1 8 4 E 1020,1 10
16.10.2018 19:00:00 20,0 18,0 8 4 SE - 10
16.10.2018 18:00:00 21,0 18,0 9 5 SE - 10
16.10.2018 17:00:00 22,8 18,1 16 9 SSE 1019,3 10
16.10.2018 16:00:00 24,0 17,0 16 9 SE - 10
16.10.2018 15:00:00 24,0 17,0 16 9 SE - 10
16.10.2018 14:00:00 24,8 18,0 18 10 SE 1019,8 10
16.10.2018 13:00:00 24,0 16,0 18 10 SE - 10
16.10.2018 12:00:00 24,0 16,0 16 9 SE - 10
16.10.2018 11:00:00 23,2 15,8 22 12 SE 1020,0 10
16.10.2018 10:00:00 22,0 17,0 16 9 SE - 10
16.10.2018 09:00:00 20,0 18,0 11 6 ESE - 10
16.10.2018 08:00:00 19,6 18,4 9 5 E 1019,0 10
16.10.2018 07:00:00 18,0 17,0 9 5 E - 10
16.10.2018 06:00:00 18,0 17,0 9 5 E - 10
16.10.2018 05:00:00 18,4 17,2 9 5 E 1019,0 10
16.10.2018 04:00:00 18,0 17,0 5 3 E - 10
16.10.2018 03:00:00 18,0 17,0 9 5 E - 10
16.10.2018 02:00:00 18,0 16,9 11 6 E 1019,0 10
16.10.2018 01:00:00 18,0 17,0 11 6 E - 10
16.10.2018 00:00:00 18,0 17,0 9 5 E - 10
15.10.2018 23:00:00 18,0 16,7 9 5 E 1018,9 10
15.10.2018 22:00:00 18,0 17,0 8 4 E - 10
15.10.2018 21:00:00 18,0 17,0 9 5 E - 10
15.10.2018 20:00:00 19,4 17,5 5 3 ENE 1018,2 10
15.10.2018 19:00:00 20,0 17,0 8 4 E - 10
15.10.2018 18:00:00 21,0 13,0 15 8 SE - 10
15.10.2018 17:00:00 22,4 15,7 18 10 SE 1017,4 10
15.10.2018 16:00:00 23,0 16,0 21 11 SE - 10
15.10.2018 15:00:00 23,0 16,0 21 11 SE - 10
15.10.2018 14:00:00 24,0 16,8 18 10 ESE 1017,6 10
15.10.2018 13:00:00 24,0 17,0 21 11 SE - 10
15.10.2018 12:00:00 24,0 15,0 21 11 ESE - 10
15.10.2018 11:00:00 23,2 16,0 21 11 ESE 1017,8 10
15.10.2018 10:00:00 22,0 15,0 22 12 ESE - 10
15.10.2018 09:00:00 20,0 15,0 13 7 ESE - 10
15.10.2018 08:00:00 16,8 13,5 8 4 E 1017,9 10
15.10.2018 07:00:00 16,0 14,0 9 5 E - 10
15.10.2018 06:00:00 16,0 15,0 9 5 E - 10
15.10.2018 05:00:00 16,2 14,7 5 3 ESE 1017,9 10
15.10.2018 04:00:00 17,0 15,0 11 6 E - 10
15.10.2018 03:00:00 17,0 15,0 11 6 E - 10
15.10.2018 02:00:00 16,4 15,4 8 4 ESE 1018,5 10
15.10.2018 01:00:00 16,0 15,0 8 4 E - 10
15.10.2018 00:00:00 16,0 15,0 8 4 E - 10
14.10.2018 23:00:00 16,8 14,4 9 5 E 1019,0 10
14.10.2018 22:00:00 16,0 14,0 8 4 E - 10
14.10.2018 21:00:00 17,0 14,0 5 3 ENE - 10
14.10.2018 20:00:00 17,0 15,4 5 3 ENE 1019,0 10
14.10.2018 19:00:00 18,0 13,0 0 0 N - 10

tt = Température de l'air
td = dewpoint
ff = Vitesse du vent
dd = Direction du vent
ppp = reduced air pressure
vv = visibility

stations d'obs. à proximité